Location: Recife
(8.0585°S, 34.8848°W)
Time: 14:38:02
(UTC-03:00)

Tiros 1 despin weight - Pass Details

Date: 20 April 2026
Orbit: 555 x 591 km, 48.2° (Epoch: 14 May)

Event Time Altitude Azimuth Distance (km) Brightness Sun altitude
Rises 09:56:42 0° 208° (SSW) 2,743 ? 61.7°
Reaches altitude 10° 09:59:05 10° 200° (SSW) 1,841 ? 62.1°
Maximum altitude 10:03:00 38° 131° (SE) 856 ? 62.8°
Drops below altitude 10° 10:06:54 10° 62° (ENE) 1,825 ? 63.5°
Sets 10:09:14 0° 54° (NE) 2,716 ? 63.8°
